Wind_Speed
53 52 51 50 51 52 51 50 51 51 51 51 51 51 51 51 51 51 52 53 54 56 56 56 57 58 59 60 61 61 62 62 63 63 63 63 64 64 64 64 65 65
53 52 51 50 50 51 50 47 48 49 50 51 51 52 52 52 52 53 53 55 56 58 59 59 59 60 60 61 62 62 63 64 64 64 64 64 65 65 65 65 65 66
53 51 50 49 48 49 51 50 49 49 50 51 52 53 54 54 55 55 56 57 58 60 61 62 62 62 62 63 63 64 65 65 65 65 65 65 66 66 65 66 66 67
52 50 49 47 47 48 51 53 52 52 53 53 54 55 56 57 58 59 59 59 59 60 61 62 62 62 63 63 65 66 67 68 67 67 66 67 67 67 66 66 67 68
50 49 48 47 47 48 50 51 52 52 53 54 54 55 56 58 59 59 59 58 58 58 59 60 61 62 63 64 66 67 69 70 69 68 68 68 68 68 67 67 68 69
48 46 45 45 45 47 47 48 49 50 51 52 52 53 54 56 57 58 58 58 58 58 59 61 62 64 65 66 68 69 71 71 71 70 69 69 69 69 68 69 69 70
44 43 43 42 43 45 47 49 50 51 51 51 52 54 55 56 57 58 58 59 60 61 63 64 65 66 67 68 69 71 72 73 72 71 70 70 70 69 69 70 70 71
42 42 43 44 46 48 49 49 50 50 50 52 53 55 56 57 58 59 61 62 64 65 66 67 67 68 68 69 70 71 72 72 72 71 70 69 69 70 70 71 71 72
42 44 46 48 50 51 50 49 49 50 51 53 54 55 56 58 61 63 64 65 66 66 67 67 68 68 69 69 70 71 71 70 69 68 67 67 68 69 70 71 71 72
46 48 50 52 53 51 50 50 51 52 53 54 55 56 58 61 63 65 66 66 66 67 67 67 68 68 68 68 69 69 69 68 67 66 66 66 66 67 68 69 70 71
50 52 53 54 53 51 52 53 53 54 55 56 56 58 61 63 65 66 66 67 67 67 67 67 67 67 67 67 68 70 70 70 69 68 67 66 65 66 67 68 69 70
52 54 55 54 51 52 54 55 55 56 57 58 59 61 63 65 66 67 68 68 67 66 65 65 64 64 64 65 66 66 67 68 68 67 66 66 66 66 67 68 69 70
53 55 55 53 52 55 57 57 57 58 59 60 62 63 65 66 67 68 67 66 64 63 62 63 63 63 64 64 64 64 64 65 65 65 66 65 66 66 67 68 69 70
55 55 55 55 57 59 60 59 60 60 61 63 64 65 66 66 66 65 63 61 60 60 62 63 63 63 64 64 64 64 64 63 63 64 65 65 66 67 68 70 71 71
58 58 57 58 61 62 62 62 62 62 63 64 64 65 65 64 63 62 61 60 61 62 62 62 62 61 61 62 62 62 62 62 62 63 64 65 66 68 70 72 72 70
62 61 60 61 63 64 64 64 64 64 64 64 64 64 63 62 61 61 62 63 63 64 64 63 62 61 60 60 61 62 62 63 63 64 64 64 65 67 69 70 70 69
65 64 63 63 64 66 66 66 65 65 64 63 63 63 63 63 63 63 65 65 66 66 64 62 59 58 58 59 60 62 63 65 66 65 63 63 65 66 67 68 68 69
67 65 64 64 66 67 67 66 65 64 63 63 63 64 65 65 66 67 68 68 68 64 59 56 55 55 57 59 61 63 64 66 65 62 59 61 64 65 66 67 68 69
67 66 65 65 67 67 67 65 64 63 63 63 64 65 66 67 68 69 68 65 62 57 53 53 56 58 59 61 63 64 65 64 62 58 56 58 61 63 63 64 65 66
67 66 65 66 66 66 65 64 62 62 62 62 63 65 66 67 66 64 61 57 54 52 53 56 58 60 60 62 63 64 64 63 61 60 59 60 61 62 62 63 64 65
66 65 65 65 65 64 63 62 61 61 61 62 63 64 65 64 61 58 55 52 52 54 57 57 58 58 59 61 62 62 63 63 62 63 63 62 63 64 64 64 65 66
66 66 65 65 64 63 61 60 60 60 60 61 61 61 61 60 59 57 55 55 56 58 59 58 56 56 57 58 60 61 61 61 62 62 63 64 65 65 66 66 66 67
67 66 65 64 62 61 60 59 59 58 57 57 58 58 58 58 58 57 57 59 60 61 60 58 56 56 56 56 56 57 58 58 60 62 64 66 67 67 67 67 67 68
67 66 65 63 61 60 59 58 56 55 55 55 56 56 57 57 57 58 60 62 63 62 61 58 55 55 56 55 55 56 58 60 63 66 68 67 67 66 66 66 67 68
70 68 65 62 60 58 56 55 54 53 53 54 53 54 54 55 57 59 61 62 63 62 60 58 56 56 57 56 56 57 59 62 66 69 68 66 63 63 63 65 67 69
71 67 63 60 57 55 53 53 52 52 51 51 51 52 53 55 57 59 61 62 63 62 61 60 60 60 60 59 59 59 61 63 66 68 67 63 60 60 62 64 67 70
Wind_Direction
283 282 281 279 278 276 272 274 277 277 276 276 275 275 275 276 277 278 279 280 281 282 282 282 283 284 284 285 285 285 285 284 284 283 282 281 281 281 281 281 280 280
281 280 279 278 277 273 268 270 275 277 277 276 276 276 277 277 278 279 281 282 283 283 283 283 284 284 285 285 285 285 285 285 284 283 282 281 281 281 281 280 280 280
281 279 278 276 274 270 267 267 271 275 276 277 278 278 279 280 281 282 283 283 284 284 285 285 286 286 286 286 286 286 285 285 284 283 282 281 281 281 281 280 280 280
280 278 277 275 272 269 268 268 271 274 276 278 279 281 282 283 284 284 285 285 286 286 286 287 287 287 287 287 286 286 285 285 284 283 282 281 281 281 281 281 281 281
279 276 275 274 271 271 271 273 275 277 278 280 281 282 283 283 284 285 286 287 287 288 288 288 288 288 288 287 287 286 286 285 284 283 282 281 281 281 281 281 281 281
278 275 274 273 273 274 276 278 281 283 284 285 284 284 283 283 284 285 287 287 288 288 288 288 288 287 287 286 286 286 286 285 284 283 282 281 280 280 281 281 282 281
276 275 275 276 277 279 281 284 286 287 287 287 286 285 285 284 285 285 286 287 287 287 287 286 286 285 285 286 286 287 286 286 284 283 282 281 281 281 282 282 282 282
273 275 277 279 281 282 283 284 285 285 286 286 285 285 284 284 284 283 284 284 285 285 285 285 284 284 285 286 286 286 285 285 284 283 282 282 283 283 284 285 284 283
274 279 282 282 282 282 283 283 283 284 284 284 284 284 285 284 283 283 283 284 284 284 284 284 284 284 285 285 285 285 285 284 284 284 285 286 286 287 288 288 288 287
278 283 284 284 283 282 282 283 283 283 283 283 284 285 286 285 285 285 286 286 286 286 285 285 285 285 285 285 285 285 285 285 285 286 287 288 288 290 291 291 292 291
280 283 285 285 282 282 284 284 283 282 283 284 285 286 287 286 286 287 288 288 287 287 287 286 286 287 287 288 288 288 287 287 287 287 287 287 288 289 291 291 292 292
281 284 286 283 280 282 285 283 282 283 283 284 285 286 287 287 288 288 288 288 288 288 289 289 290 292 293 294 294 294 293 291 289 288 287 287 288 290 291 292 292 292
282 286 286 280 279 284 284 281 281 282 283 283 285 286 287 287 287 287 287 287 289 291 292 294 295 296 296 296 296 295 294 293 291 290 290 290 291 292 294 295 294 293
284 286 284 279 279 283 282 279 280 281 281 282 284 285 286 286 286 286 286 288 290 293 294 295 295 294 294 293 293 293 294 294 294 293 293 294 294 295 296 297 296 293
286 287 284 279 279 281 281 279 279 280 281 282 283 284 285 284 284 285 286 289 292 294 295 295 294 293 293 293 293 294 294 295 295 295 295 295 295 296 297 296 294 292
288 288 285 281 279 280 279 278 277 279 280 281 282 282 282 282 283 285 288 290 293 294 295 294 294 294 295 295 295 296 296 296 296 296 295 295 296 297 297 296 295 295
288 286 284 280 278 277 277 275 275 277 278 279 280 281 281 282 284 286 289 291 293 295 296 296 295 296 296 296 297 297 297 297 297 295 294 295 296 297 296 296 297 297
286 284 281 278 275 274 274 273 274 276 277 278 279 280 282 283 285 287 290 292 294 295 295 295 296 298 298 297 297 297 297 298 297 295 294 295 296 295 296 296 297 297
283 281 278 275 272 272 272 272 273 276 278 279 281 283 285 287 289 291 293 293 293 293 293 295 298 299 299 298 298 297 297 298 297 295 295 296 295 295 296 296 296 296
279 277 274 272 271 271 271 272 274 277 279 282 284 287 289 291 293 293 293 292 290 291 294 297 299 300 299 298 298 297 296 296 294 294 294 294 294 294 296 296 296 297
275 273 271 270 269 270 271 273 275 278 281 284 287 289 291 292 293 293 291 290 290 293 296 298 299 300 300 298 297 296 295 294 293 292 291 291 292 293 294 295 296 296
271 269 268 268 269 270 272 275 278 281 284 286 288 289 290 291 291 291 290 290 291 294 296 297 298 299 299 298 297 296 296 296 295 294 294 293 293 294 294 294 295 295
268 267 267 267 269 271 274 278 280 282 284 287 289 290 290 290 290 290 290 291 292 294 294 294 294 296 297 298 299 299 299 299 299 299 299 298 296 296 295 295 295 296
267 267 267 268 270 273 276 278 280 282 285 288 289 289 289 289 290 292 292 292 292 292 291 290 290 294 297 298 300 302 302 302 303 303 302 299 298 297 296 296 297 297
267 267 269 271 273 275 276 278 280 283 285 287 287 289 290 291 292 293 293 293 292 291 289 287 289 293 296 298 300 301 302 304 306 306 303 300 298 298 298 299 299 299
269 271 272 274 275 276 277 278 280 282 284 285 287 288 290 291 293 293 293 292 292 291 289 287 289 292 295 297 299 300 303 307 309 307 303 301 301 302 302 302 302 300
Height
5690 5689 5689 5690 5689 5688 5687 5684 5682 5680 5679 5678 5677 5675 5674 5672 5671 5671 5670 5669 5669 5668 5667 5665 5664 5662 5660 5659 5657 5655 5654 5652 5650 5649 5647 5644 5643 5641 5639 5637 5635 5633
5682 5682 5681 5681 5681 5680 5679 5679 5677 5675 5673 5672 5671 5669 5667 5666 5665 5664 5663 5662 5661 5660 5659 5657 5655 5653 5651 5650 5648 5646 5645 5643 5641 5640 5637 5635 5633 5631 5629 5628 5625 5623
5674 5674 5674 5673 5673 5672 5671 5672 5670 5669 5667 5666 5664 5662 5661 5659 5657 5656 5655 5654 5653 5652 5650 5649 5646 5644 5643 5641 5639 5638 5636 5634 5632 5630 5628 5625 5623 5622 5620 5618 5615 5613
5667 5666 5666 5665 5665 5664 5663 5663 5663 5662 5661 5659 5657 5656 5654 5652 5650 5648 5646 5644 5643 5642 5641 5639 5637 5635 5634 5632 5630 5629 5627 5624 5623 5621 5618 5615 5613 5612 5610 5608 5606 5603
5659 5658 5658 5657 5656 5656 5655 5655 5655 5654 5653 5652 5650 5649 5647 5644 5642 5639 5637 5636 5634 5633 5631 5630 5628 5627 5625 5623 5622 5620 5617 5615 5613 5611 5608 5605 5603 5601 5599 5598 5596 5593
5650 5650 5649 5648 5648 5647 5647 5647 5646 5645 5644 5643 5642 5640 5638 5636 5633 5631 5629 5628 5626 5624 5623 5621 5620 5618 5616 5615 5613 5610 5608 5605 5603 5601 5598 5595 5592 5591 5589 5588 5586 5583
5643 5641 5640 5640 5639 5638 5638 5638 5637 5636 5635 5634 5633 5631 5629 5627 5625 5623 5621 5620 5618 5616 5615 5613 5611 5609 5608 5606 5604 5601 5599 5596 5593 5591 5588 5585 5583 5580 5579 5578 5577 5574
5635 5634 5633 5632 5631 5630 5630 5629 5628 5627 5626 5625 5624 5622 5621 5619 5617 5615 5613 5611 5609 5607 5606 5604 5602 5601 5599 5597 5594 5592 5589 5586 5584 5581 5579 5576 5574 5572 5570 5569 5567 5565
5628 5627 5625 5624 5623 5622 5622 5621 5620 5620 5618 5617 5615 5614 5612 5610 5608 5606 5604 5602 5601 5598 5597 5595 5593 5591 5589 5587 5585 5582 5579 5577 5574 5572 5570 5568 5566 5563 5562 5560 5558 5556
5620 5619 5617 5616 5615 5614 5613 5613 5612 5611 5609 5608 5607 5605 5604 5602 5599 5597 5595 5593 5591 5589 5587 5585 5583 5581 5579 5577 5575 5572 5570 5567 5565 5564 5561 5559 5557 5555 5553 5551 5549 5547
5612 5611 5610 5608 5607 5606 5605 5604 5603 5602 5600 5599 5598 5596 5594 5592 5590 5587 5585 5583 5581 5579 5577 5575 5573 5571 5569 5567 5566 5564 5561 5559 5557 5555 5552 5550 5548 5546 5543 5542 5540 5538
5604 5603 5602 5600 5598 5597 5597 5596 5594 5593 5591 5589 5588 5587 5585 5582 5580 5577 5575 5573 5571 5569 5567 5565 5564 5562 5560 5558 5557 5555 5553 5551 5548 5545 5543 5541 5539 5536 5534 5532 5530 5528
5596 5595 5593 5592 5590 5589 5588 5587 5585 5583 5582 5580 5579 5577 5575 5572 5570 5568 5566 5564 5562 5561 5559 5557 5555 5553 5551 5550 5548 5547 5545 5542 5540 5537 5535 5532 5530 5527 5525 5523 5521 5519
5588 5586 5585 5584 5582 5581 5580 5578 5576 5575 5573 5571 5569 5567 5565 5563 5561 5559 5558 5556 5554 5552 5550 5549 5547 5544 5543 5541 5540 5538 5536 5533 5531 5528 5526 5523 5521 5518 5516 5513 5512 5509
5579 5578 5577 5575 5574 5572 5571 5569 5568 5566 5564 5562 5560 5558 5556 5554 5553 5551 5549 5548 5546 5544 5542 5540 5538 5536 5534 5532 5530 5528 5526 5524 5522 5519 5517 5515 5512 5509 5506 5503 5501 5500
5570 5568 5567 5566 5565 5563 5562 5560 5558 5556 5554 5553 5551 5549 5548 5546 5544 5542 5541 5539 5537 5536 5534 5531 5529 5526 5525 5523 5521 5519 5518 5515 5513 5511 5508 5505 5503 5500 5497 5494 5491 5490
5561 5559 5558 5557 5556 5554 5553 5551 5549 5547 5545 5544 5542 5540 5539 5537 5535 5534 5532 5530 5528 5526 5524 5521 5519 5518 5516 5514 5512 5511 5509 5507 5505 5502 5499 5496 5493 5491 5488 5485 5483 5480
5550 5549 5548 5547 5546 5544 5543 5541 5539 5538 5536 5535 5533 5532 5530 5528 5527 5525 5523 5521 5519 5517 5515 5512 5511 5510 5508 5505 5504 5502 5501 5499 5496 5492 5490 5487 5484 5482 5479 5477 5474 5471
5539 5539 5538 5537 5536 5534 5533 5531 5530 5529 5528 5526 5525 5523 5522 5520 5518 5516 5514 5512 5510 5508 5506 5504 5502 5501 5499 5496 5495 5494 5492 5490 5488 5484 5481 5478 5475 5473 5470 5467 5464 5462
5529 5529 5528 5527 5526 5524 5523 5522 5521 5520 5519 5518 5516 5514 5512 5511 5509 5507 5505 5503 5501 5499 5497 5495 5493 5491 5490 5488 5486 5485 5483 5482 5480 5477 5473 5470 5467 5464 5461 5458 5454 5452
5519 5519 5518 5517 5516 5515 5514 5513 5512 5511 5510 5508 5507 5505 5503 5502 5500 5498 5496 5495 5493 5491 5488 5486 5484 5482 5481 5479 5477 5476 5475 5473 5471 5468 5465 5462 5458 5454 5451 5448 5444 5442
5509 5508 5508 5507 5506 5505 5505 5504 5503 5502 5501 5499 5498 5497 5495 5493 5491 5489 5488 5486 5484 5482 5480 5477 5476 5475 5473 5471 5470 5468 5466 5465 5462 5460 5457 5453 5450 5446 5442 5438 5434 5431
5499 5499 5499 5498 5497 5497 5496 5496 5495 5494 5493 5491 5490 5488 5486 5484 5483 5481 5480 5479 5476 5474 5472 5470 5468 5467 5465 5463 5461 5459 5458 5456 5454 5451 5448 5445 5441 5437 5433 5428 5424 5421
5490 5490 5490 5489 5488 5488 5487 5487 5486 5485 5484 5483 5481 5480 5478 5476 5475 5474 5472 5471 5469 5466 5464 5462 5461 5459 5457 5455 5452 5451 5449 5447 5445 5442 5438 5435 5431 5427 5423 5419 5415 5411
5481 5480 5480 5479 5479 5478 5478 5477 5477 5476 5475 5474 5473 5471 5469 5468 5467 5466 5464 5463 5461 5459 5456 5454 5453 5451 5448 5446 5444 5442 5440 5437 5435 5432 5428 5425 5422 5418 5414 5410 5406 5402
5471 5470 5470 5469 5469 5468 5468 5468 5467 5467 5466 5465 5464 5462 5461 5460 5459 5458 5456 5455 5453 5451 5448 5446 5445 5443 5440 5438 5435 5433 5431 5428 5425 5422 5419 5416 5413 5409 5405 5401 5398 5394